Regional Weather Roundup
Issued by NWS

Home | Current Version | Previous Version | Graphics & Text | Print | Product List | Glossary On
Versions: 1 2 3 4 5 6 7 8 9 10 11 12 13 14 15 16 17 18 19 20 21 22 23 24 25 26 27 28 29 30 31 32 33 34 35 36 37 38 39 40 41 42 43 44 45 46 47 48 49 50
000
ASUS43 KMKX 310600
RWRWI

WISCONSIN REGIONAL WEATHER ROUNDUP
NATIONAL WEATHER SERVICE MILWAUKEE/SULLIVAN WI
100 AM CDT WED AUG 31 2016

NOTE: "FAIR" INDICATES FEW OR NO CLOUDS BELOW 12,000 FEET WITH NO
SIGNIFICANT WEATHER AND/OR OBSTRUCTIONS TO VISIBILITY.

WIZ001-002-006>008-014>016-023>028-310700-
NORTHWEST WISCONSIN

CITY           SKY/WX    TMP DP  RH WIND       PRES   REMARKS
SUPERIOR ARPT  FAIR      48  48  99 W3        30.18R
ASHLAND        FAIR      57  50  77 NW7       30.16R
6HR MIN TEMP:  52; 6HR MAX TEMP:  71;

HAYWARD        FAIR      50  48  93 CALM      30.18S
6HR MIN TEMP:  50; 6HR MAX TEMP:  73;

SIREN          FAIR      53  52  94 CALM      30.19R
CUMBERLAND     FAIR      57  54  88 NW3       30.19R
RICE LAKE      FAIR      53  51  93 CALM      30.19R
CHETEK         NOT AVBL
LADYSMITH      FAIR      57  54  90 N5        30.18R
EAU CLAIRE     NOT AVBL
MENOMONIE      FAIR      58  57  95 CALM      30.18R
6HR MIN TEMP:  58; 6HR MAX TEMP:  75;

NEW RICHMOND   FAIR      57  56  97 CALM      30.19R
OSCEOLA        FAIR      56  56 100 CALM      30.21R
$$

WIZ003>005-009-010-017-018-310700-
NORTH CENTRAL WISCONSIN

CITY           SKY/WX    TMP DP  RH WIND       PRES   REMARKS
MANITOWISH WTR NOT AVBL
ARBOR VITAE    FAIR      52  50  93 CALM      30.16S
WOODRUFF       FAIR      52  50  93 CALM      30.16S
RHINELANDER    FAIR      49  48  97 CALM      30.17R
6HR MIN TEMP:  49; 6HR MAX TEMP:  71;

EAGLE RIVER    FAIR      49  49 100 CALM      30.15S FOG
LAND O LAKES   FAIR      47  47 100 CALM      30.16S FOG
PHILLIPS       FAIR      52  52 100 CALM      30.16S
6HR MIN TEMP:  51; 6HR MAX TEMP:  70;

TOMAHAWK       FAIR      46  45  95 CALM      30.16S
MEDFORD        FAIR      49  49 100 CALM      30.16R
MERRILL        FAIR      50  49  97 CALM      30.17R
6HR MIN TEMP:  50; 6HR MAX TEMP:  73;

$$

WIZ029-030-035-036-043>047-310700-
CENTRAL WISCONSIN

CITY           SKY/WX    TMP DP  RH WIND       PRES   REMARKS
WAUSAU         FAIR      57  50  77 CALM      30.14R
6HR MIN TEMP:  57; 6HR MAX TEMP:  75;

MOSINEE        FAIR      55  50  82 E3        30.16S
MARSHFIELD     FAIR      60  51  72 CALM      30.16R
6HR MIN TEMP:  60; 6HR MAX TEMP:  74;

STEVENS POINT  FAIR      58  52  80 CALM      30.16R
WAUPACA        FAIR      66  58  75 N5        30.13S
WAUTOMA        FAIR      65  58  78 N7        30.13R
6HR MIN TEMP:  65; 6HR MAX TEMP:  79;

WISC RAPIDS    FAIR      62  54  74 NE6       30.16R
6HR MIN TEMP:  62; 6HR MAX TEMP:  76;

CAMP DOUGLAS   NOT AVBL
$$

WIZ011>013-019>022-031-037>040-048>050-310700-
NORTHEAST WISCONSIN

CITY           SKY/WX    TMP DP  RH WIND       PRES   REMARKS
ANTIGO         FAIR      54  50  89 CALM      30.16S
SHAWANO        FAIR      65  58  77 N5        30.14R
OCONTO         NOT AVBL
STURGEON BAY   FAIR      64  54  69 NE8       30.12R
6HR MIN TEMP:  64; 6HR MAX TEMP:  77;

GREEN BAY      FAIR      65  63  93 N9        30.12R
6HR MIN TEMP:  65; 6HR MAX TEMP:  78;

MANITOWOC      NOT AVBL
APPLETON       MOCLDY    66  55  68 N13       30.11R
CLINTONVILLE   FAIR      63  57  82 CALM      30.13S
OSHKOSH        FAIR      68  60  75 N9        30.10R
6HR MIN TEMP:  68; 6HR MAX TEMP:  79;

$$

WIZ032>034-041-042-053>061-310700-
SOUTHWEST WISCONSIN

CITY           SKY/WX    TMP DP  RH WIND       PRES   REMARKS
LA CROSSE      FAIR      63  61  93 NE5       30.14S
6HR MIN TEMP:  63; 6HR MAX TEMP:  77;

SPARTA         FAIR      56  56  99 CALM      30.16R
VIROQUA        FAIR      63  59  89 N7        30.15F
6HR MIN TEMP:  62; 6HR MAX TEMP:  75;

BOSCOBEL       FAIR      64  63  96 CALM      30.13R
6HR MIN TEMP:  64; 6HR MAX TEMP:  78;

PRAIRIE DU CHI FAIR      65  62  91 CALM      30.12S
PLATTEVILLE    FAIR      67  67 100 N6        30.12S
$$

WIZ056-057-062-063-064-067-068-310700-
SOUTH CENTRAL WISCONSIN

CITY           SKY/WX    TMP DP  RH WIND       PRES   REMARKS
REEDSBURG      NOT AVBL
BARABOO/DELLS  FAIR      66  60  81 NW5       30.12S
LONE ROCK      NOT AVBL
MINERAL POINT  MOCLDY    68  66  94 N7        30.12S
MADISON        MOCLDY    68  64  87 N6        30.10R
6HR MIN TEMP:  68; 6HR MAX TEMP:  76;

MIDDLETON      MOCLDY    68  66  94 NW5       30.11R
WATERTOWN      FAIR      68  66  93 N6        30.08S
MONROE         FAIR      68  64  88 NW7       30.10S
JANESVILLE     FOG       68  66  94 CALM      30.08S VSB 1/4
$$

WIZ051-052-058>065-066-070>072-310700-
SOUTHEAST WISCONSIN

CITY           SKY/WX    TMP DP  RH WIND       PRES   REMARKS
MILWAUKEE      MOCLDY    73  67  81 NW7       30.05S
6HR MIN TEMP:  72; 6HR MAX TEMP:  75;

WAUKESHA       FAIR      66  64  94 CALM      30.08S
MILWAUKEE/TIMM FAIR      68  63  83 N6        30.07S
RACINE         FAIR      70  67  90 NW8       30.06F
6HR MIN TEMP:  70; 6HR MAX TEMP:  73;

BURLINGTON     FAIR      66  66  99 CALM      30.06F
KENOSHA        FAIR      70  68  93 NW6       30.05F
6HR MIN TEMP:  68; 6HR MAX TEMP:  72;

FOND DU LAC    MOCLDY    70  62  76 N8        30.09R
6HR MIN TEMP:  69; 6HR MAX TEMP:  79;

SHEBOYGAN      MOCLDY    68  61  78 NE15G25   30.09R
6HR MIN TEMP:  68; 6HR MAX TEMP:  77;

WEST BEND      FAIR      68  63  83 N5        30.08R
JUNEAU         MOCLDY    68  64  88 N6        30.10S
$$

LSZ147-162-310700-
LAKE SUPERIOR

STATION/POSITION TIME  TEMP    WIND        PRES    WAVE
                       AIR SEA DIR/SP/G            HT/PER
                 (UTC) (F)     (DEG/KT/KT) (MB)    (FT/S)
W MID LAKE BUOY  0450   67 68  340/ 10/ 12 1019.7R   1/ 3
DEVILS ISLAND    0500   66     340/ 13/ 14 1020.7R
SAXON HARBOR     0540   57     200/  3/  6 1020.3S
$$

LMZ867-665-643>646-310700-
LAKE MICHIGAN

STATION/POSITION TIME  TEMP    WIND        PRES    WAVE
                       AIR SEA DIR/SP/G            HT/PER
                 (UTC) (F)     (DEG/KT/KT) (MB)    (FT/S)
CHAMBERS ISLAND  0500   68     350/ 14/ 16 1019.3R
S GREEN BAY BUOY 0500   69 72   50/ 17/ 19 1018.8
N MID LAKE BUOY  0450   67 71  360/ 16/ 17 1018.2R   3/ 5
NORTHPORT PIER   0500   67      10/  8/ 11 1019.3
SISTER BAY       0537   65      20/  8/ 12   N/A
KEWAUNEE LAKESHO 0500   67      10/  9/ 15 1018.5R
SHEBOYGAN LAKESH 0500   67     360/ 18/ 20 1017.8R
PORT WASHINGTON  0500   72     320/  4/  7 1018.3S
ATWATER BUOY     0500   70     300/  8/ 10   N/A
MILWAUKEE LAKESH 0510   73     330/  8/  9   N/A
S MID LAKE BUOY  0450   74 75  240/  6/  8 1016.7F   1
KENOSHA   LAKESH 0500   72     280/  9/ 11 1017.3F
$$

TC  - TEMPERATURE IN CELSIUS
VSB - VISIBILITY IN STATUTE MILES
WCI - WIND CHILL INDEX
HX  - HEAT INDEX





USA.gov is the U.S. government's official web portal to all federal, state and local government web resources and services.